Regional Weather Roundup
Issued by NWS

Home | Current Version | Previous Version | Graphics & Text | Print | Product List | Glossary On
Versions: 1 2 3 4 5 6 7 8 9 10 11 12 13 14 15 16 17 18 19 20 21 22 23 24 25 26 27 28 29 30 31 32 33 34 35 36 37 38 39 40 41 42 43 44 45 46 47 48 49 50
000
ASUS43 KIND 240209
RWRIN

WEATHER ROUNDUP FOR INDIANA
NATIONAL WEATHER SERVICE INDIANAPOLIS IN
1000 PM EDT SUN APR 23 2017

NOTE: "FAIR" INDICATES FEW OR NO CLOUDS BELOW 12,000 FEET WITH NO
SIGNIFICANT WEATHER AND/OR OBSTRUCTIONS TO VISIBILITY.

* - STATION DOES NOT REPORT WEATHER SUCH AS PRECIPITATION OR FOG.

+ - STATION NOT QUALITY CONTROLLED BY THE NATIONAL WEATHER SERVICE.
    USE DATA WITH CAUTION...ESPECIALLY DEWPOINT AND RELATIVE
    HUMIDITY OBSERVATIONS.

INZ001>003-010>013-019-020-240300-
NORTHWEST INDIANA

CITY           SKY/WX    TMP DP  RH WIND       PRES   REMARKS
GARY /AIRPORT/ PTCLDY    52  37  58 CALM      30.06S
KNOX *+        CLEAR     50   5  16 N5        30.04R
LA PORTE +     CLEAR     52  30  43 N9        30.05S
MICHIGAN CITY+ CLEAR     46  30  53 CALM      30.07R
MONTICELLO +   CLEAR     57  37  46 CALM      30.03R
RENSSELAER +   CLEAR     55  25  30 N7        30.05R
VALPARAISO     CLEAR     54  28  36 N7        30.05S

$$

LMZ046-743>745-240300-
SOUTHERN LAKE MICHIGAN

STATION/POSITION TIME  TEMP    WIND        PRES    WAVE
                       AIR SEA DIR/SP/G            HT
                 (UTC) (F)     (DEG/KT/KT) (MB)    (FT)
BURNS HARBOR     0140   54      80/  7/  8 1017.9S
MICHIGAN CITY    0140   52      50/  4/  5   N/A

$$

INZ004-005-014>016-021>024-240300-
NORTH CENTRAL INDIANA

CITY           SKY/WX    TMP DP  RH WIND       PRES   REMARKS
GOSHEN         CLEAR     55  31  39 CALM      30.04R
LOGANSPORT +   CLEAR     57  32  38 CALM      30.05R
PERU/GRISSOM   CLEAR     57  34  41 E7        30.02R
ROCHESTER +    CLEAR     57  34  41 CALM      30.05R
SOUTH BEND     CLEAR     49  34  56 N9        30.06S
WARSAW +       CLEAR     52  34  50 CALM      30.04S

$$

INZ006>009-017-018-025>027-240300-
NORTHEAST INDIANA

CITY           SKY/WX    TMP DP  RH WIND       PRES   REMARKS
ANGOLA *+      CLEAR     54  43  66 CALM      30.05R
AUBURN +       CLEAR     52  37  58 CALM      30.06R
FORT WAYNE     CLEAR     55  33  43 E6        30.05S
HUNTINGTON +   CLEAR     55  33  43 E5        30.04S
KENDALLVILLE + CLEAR     58  35  42 SE3       30.06R

$$

INZ028-029-035-036-043>045-051>053-240300-
WEST CENTRAL INDIANA

CITY           SKY/WX    TMP DP  RH WIND       PRES   REMARKS
CRAWFORDSVL +  CLEAR     52  32  47 NE6       30.02S
GREENCASTLE +  CLEAR     54  30  40 N7        30.01R
LAFAYETTE      CLEAR     54  38  54 NE6       30.02R
TERRE HAUTE    CLEAR     58  28  32 N9        29.99R

$$

INZ030>032-037>040-046>048-054>057-064-065-240300-
CENTRAL INDIANA

CITY           SKY/WX    TMP DP  RH WIND       PRES   REMARKS
CP ATTERBURY + CLOUDY    61  32  33 NE8       29.98R
COLUMBUS       CLEAR     55  32  41 NE8       29.97R
FISHERS *+     CLEAR     57  34  41 CALM      30.01R
FRANKFORT +    CLEAR     58  32  36 NE5       30.05R
GREENWOOD *+   CLEAR     61  26  26 NE9       30.00S
INDIANAPOLIS   PTCLDY    60  28  29 NE12      30.00R
-EAGLE CREEK   CLEAR     61  26  26 NE6       30.00R
KOKOMO +       CLEAR     53  35  50 NE7       30.04S
MARION +       CLEAR     55  32  41 NE6       30.04R
MT COMFORT *+  CLEAR     54  30  40 NE9       30.01R
SHELBYVILLE    CLEAR     61  30  31 NE12      29.98R
ZIONSVILLE +   CLEAR     54  32  43 N7        30.03R

$$

INZ033-034-041-042-049-050-058-059-240300-
EAST CENTRAL INDIANA

CITY           SKY/WX    TMP DP  RH WIND       PRES   REMARKS
MUNCIE         CLEAR     57  31  37 NE8       30.03R
RICHMOND +     CLEAR     52  34  50 NE8       30.01R

$$

INZ060-061-067>069-081>083-085>088-240300-
SOUTHWEST INDIANA

CITY           SKY/WX    TMP DP  RH WIND       PRES   REMARKS
EVANSVILLE     PTCLDY    60  35  39 NE7       29.95R
HUNTINGBURG *+ CLOUDY    58  35  42 NE5       29.97R
WASHINGTON +   PTCLDY    58  35  41 MISG      29.95S

$$

INZ062-063-066-070>080-084-089>092-240300-
SOUTH CENTRAL AND SOUTHEAST INDIANA

CITY           SKY/WX    TMP DP  RH WIND       PRES   REMARKS
BEDFORD +      CLOUDY   N/A N/A N/A N5        29.94S
BLOOMINGTON    PTCLDY    58  34  40 N8        29.96S
MADISON *+     CLOUDY    55  36  47 CALM      29.98R
NORTH VERNON + CLOUDY    55  41  58 N6        29.96F
SEYMOUR +      CLOUDY    59  37  44 NE7       29.96S

$$




USA.gov is the U.S. government's official web portal to all federal, state and local government web resources and services.